This demonstration page uses our WeatherBlox Daily Observations layout. Learn more.

36.17497, -115.13722

Hourly Observations for November 4, 2019

Temp ( °F °C ) Dew Point ( °F °C ) Humidity (%) Winds ( mph kmh ) Pressure ( in mb ) Visibility ( mi km ) Precip ( " mm )
12:53 am 00:53 Clear 52 11.1 17 -8.3 25 25 W 5 7 30.02 1017 10 16.0934 0 0
1:53 am 01:53 Clear 55 12.8 12 -11.1 18 18 NW 6 9 30.02 1017 10 16.0934 0 0
2:53 am 02:53 Clear 53 11.7 10 -12.2 18 18 WNW 5 7 30.03 1017 10 16.0934 0 0
3:53 am 03:53 Clear 51 10.6 15 -9.4 24 24 Calm 30.04 1017 10 16.0934 0 0
4:53 am 04:53 Clear 46 7.8 15 -9.4 29 29 N 5 7 30.05 1018 10 16.0934 0 0
5:53 am 05:53 Clear 45 7.2 15 -9.4 30 30 WNW 5 7 30.07 1018 10 16.0934 0 0
6:53 am 06:53 Sunny 48 8.9 15 -9.4 27 27 WNW 5 7 30.09 1019 10 16.0934 0 0
7:53 am 07:53 Sunny 55 12.8 13 -10.6 19 19 Calm 30.11 1020 10 16.0934 0 0
8:53 am 08:53 Sunny 61 16.1 14 -10 16 16 Calm 30.11 1020 10 16.0934 0 0
9:53 am 09:53 Sunny 65 18.3 13 -10.6 13 13 Calm 30.1 1019 10 16.0934 0 0
10:53 am 10:53 Sunny 68 20 13 -10.6 12 12 SE 5 7 30.09 1019 10 16.0934 0 0
11:53 am 11:53 Sunny 70 21.1 11 -11.7 10 10 ESE 3 6 30.06 1018 10 16.0934 0 0
12:53 pm 12:53 Sunny 73 22.8 9 -12.8 8 8 E 5 7 30.04 1017 10 16.0934 0 0
1:53 pm 13:53 Sunny 74 23.3 8 -13.3 8 8 E 3 6 30.02 1017 10 16.0934 0 0
2:53 pm 14:53 Sunny 75 23.9 8 -13.3 7 7 Calm 30.01 1016 10 16.0934 0 0
3:53 pm 15:53 Sunny 75 23.9 9 -12.8 8 8 Calm 30.01 1016 10 16.0934 0 0
4:53 pm 16:53 Clear 73 22.8 9 -12.8 8 8 Calm 30.02 1017 10 16.0934 0 0
5:53 pm 17:53 Clear 66 18.9 16 -8.9 14 14 Calm 30.05 1018 10 16.0934 0 0
6:53 pm 18:53 Clear 62 16.7 21 -6.1 21 21 WNW 7 11 30.06 1018 10 16.0934 0 0
7:53 pm 19:53 Clear 60 15.6 19 -7.2 20 20 NW 7 11 30.06 1018 10 16.0934 0 0
8:53 pm 20:53 Clear 57 13.9 16 -8.9 20 20 NW 6 9 30.08 1019 10 16.0934 0 0
9:53 pm 21:53 Clear 54 12.2 18 -7.8 24 24 N 5 7 30.09 1019 10 16.0934 0 0
10:53 pm 22:53 Clear 52 11.1 19 -7.2 27 27 NNW 5 7 30.1 1019 10 16.0934 0 0
11:53 pm 23:53 Clear 54 12.2 18 -7.8 24 24 WNW 8 13 30.1 1019 10 16.0934 0 0

Powered by AerisWeather